RH
94 92 92 88 86 85 81 79 80 79 76 73 65 51 56 64 66 70 69 70 77 83 84 80 80 79 77 76 75 74 72 70 70 68 65 67 72 73 75 75 73 72 71 69 68 66 65 68 72 73 72 70 70 74 74 70 66 63 61 61 64 66
88 95 95 86 84 86 85 84 87 84 80 78 64 51 59 68 70 71 69 74 87 91 84 82 89 89 87 82 75 73 73 72 70 70 70 69 70 71 73 75 73 72 70 66 66 69 70 70 69 69 67 66 71 71 69 70 68 64 60 60 65 66
86 94 95 93 90 92 95 92 87 81 80 80 67 63 74 80 80 78 77 85 93 92 84 85 92 89 87 86 79 74 73 75 73 72 73 72 71 72 73 72 70 69 67 65 65 66 69 73 70 67 67 67 71 68 68 70 67 64 61 60 66 68
92 91 89 97 96 94 100 95 84 80 81 80 75 77 81 84 89 87 86 93 96 91 86 88 90 83 82 85 80 74 73 77 75 71 74 79 77 73 72 70 66 67 70 67 63 61 61 70 72 67 68 68 67 66 68 67 64 64 63 64 65 67
94 93 93 98 95 92 96 93 81 79 83 78 77 77 75 82 92 93 89 89 91 89 84 85 88 82 82 83 80 79 78 82 84 78 78 84 84 79 79 77 72 71 73 68 64 63 60 66 72 68 68 69 68 66 64 63 64 66 66 70 67 67
93 95 98 95 91 92 94 93 82 80 86 81 80 82 80 87 94 96 88 84 88 89 86 85 87 83 81 81 79 81 80 83 86 83 82 82 80 82 83 80 76 72 70 68 68 68 64 69 72 69 70 70 68 65 61 61 67 70 69 74 70 66
95 92 94 91 92 98 96 99 90 85 93 85 83 90 91 91 92 95 90 87 88 86 86 86 87 83 79 80 80 80 78 81 82 79 83 80 73 74 76 75 73 69 66 66 68 66 63 68 71 69 70 68 66 65 62 63 69 73 72 75 71 64
94 89 90 90 89 93 92 97 92 90 96 86 84 91 94 95 89 92 94 91 88 86 87 88 90 86 82 79 76 77 77 81 81 77 82 81 72 69 70 72 72 67 64 64 65 63 58 62 69 70 70 69 68 67 67 69 72 74 73 76 73 64
91 88 83 81 81 84 84 88 89 92 90 78 82 84 86 91 86 89 94 90 90 92 92 92 95 95 94 86 78 81 80 79 83 82 84 83 78 72 69 72 70 65 63 64 64 62 56 58 67 71 70 67 66 67 71 74 74 75 73 76 77 66
85 85 80 77 84 88 83 87 91 91 84 72 74 76 77 90 92 91 91 90 93 97 97 94 97 99 99 94 87 88 82 76 83 88 86 83 82 77 72 71 69 63 62 63 63 60 57 58 65 70 70 67 66 67 71 73 74 76 74 77 81 73
82 84 83 79 89 93 82 84 87 83 81 72 71 76 83 92 94 93 93 96 96 96 96 93 97 96 91 91 88 85 80 76 81 86 85 83 84 81 75 72 68 66 65 65 66 62 56 57 62 65 67 67 66 67 71 73 75 78 77 77 80 81
74 73 77 73 82 92 85 83 80 75 76 74 78 88 93 92 92 94 95 99 98 94 94 93 97 94 87 91 89 83 83 83 84 84 83 83 84 82 78 76 73 72 72 71 70 66 60 58 62 64 64 67 67 67 71 74 77 80 80 80 78 80
69 67 75 75 79 85 86 84 77 75 78 82 92 96 94 93 94 93 94 99 98 95 96 95 97 94 91 97 95 90 90 88 87 86 87 87 85 82 80 80 78 76 76 73 71 70 65 62 64 66 67 68 70 68 66 66 71 78 81 84 79 75
80 80 82 81 81 81 84 86 83 84 89 94 99 96 93 96 96 94 94 95 94 96 99 93 94 97 95 97 96 93 90 86 89 91 92 92 87 83 81 82 77 75 77 73 71 71 68 67 66 68 69 69 70 70 65 64 68 75 80 84 81 75
87 86 83 83 82 81 84 87 86 89 96 100 97 91 91 96 97 98 95 90 86 92 99 94 94 99 99 97 92 90 89 87 90 93 93 93 90 88 88 86 79 77 78 73 72 74 72 73 72 73 75 72 73 75 72 71 72 71 75 81 82 83
86 85 85 84 83 85 87 88 90 92 97 97 91 85 86 92 94 95 94 90 86 87 95 99 98 99 101 97 88 88 94 94 94 93 94 96 92 89 91 90 87 83 81 77 72 73 73 75 78 80 80 77 77 76 74 73 72 68 69 75 78 83
85 85 87 85 87 92 90 90 90 88 88 85 78 76 79 84 88 93 92 90 90 91 96 101 100 100 100 98 92 92 99 100 98 94 93 95 89 87 90 91 93 90 88 83 72 71 73 71 76 80 80 82 83 81 80 80 77 74 72 73 74 75
83 84 88 87 90 93 87 83 80 77 78 73 69 70 71 71 78 89 92 88 90 95 100 100 100 101 100 98 96 96 100 100 100 97 94 94 88 82 83 89 93 87 88 85 72 73 75 70 72 74 75 81 84 83 84 83 80 75 73 73 74 73
85 86 89 90 91 91 85 79 76 74 72 67 66 68 67 67 73 82 88 90 92 95 98 100 100 100 100 100 98 97 100 100 100 99 93 93 90 73 66 80 83 72 80 86 77 77 78 72 71 71 73 76 79 80 81 80 76 72 73 76 75 74
84 89 90 90 89 85 80 76 72 67 63 60 62 64 64 68 72 74 81 91 96 96 96 99 100 100 100 100 99 99 100 99 97 95 89 89 91 74 60 73 79 72 81 88 82 80 78 75 76 77 80 82 80 79 81 81 78 76 76 75 73 71
83 89 87 87 85 78 72 69 66 59 55 55 59 61 63 70 73 73 81 91 95 95 97 100 100 99 101 100 100 100 99 96 92 90 88 86 91 84 71 77 84 83 85 85 85 84 80 79 78 78 81 84 86 87 87 84 79 77 75 72 71 70
85 91 89 85 78 70 63 60 58 54 51 53 55 57 62 73 76 76 82 89 91 91 94 97 96 98 101 99 99 99 97 96 92 92 91 89 94 92 86 87 88 87 85 84 86 86 86 81 69 68 72 75 83 88 88 83 75 74 72 69 68 69
86 89 87 81 69 66 67 64 62 59 54 52 57 64 69 75 76 75 79 84 89 92 92 92 93 95 96 95 95 96 97 98 95 93 91 90 94 95 93 92 87 86 85 83 84 86 90 84 67 62 65 70 80 83 83 81 71 68 69 68 64 64
87 84 81 80 74 74 75 70 67 67 64 57 63 74 77 77 75 73 76 77 80 87 90 89 89 88 87 89 92 92 92 93 94 93 90 89 92 93 92 87 83 84 84 80 81 85 90 87 76 66 58 64 75 77 82 81 68 65 65 61 59 59
87 84 83 85 81 78 74 70 69 68 66 61 65 70 68 70 72 69 71 73 74 76 79 83 84 81 81 85 89 89 85 85 89 88 86 86 86 86 85 82 80 82 81 77 77 86 92 90 86 77 64 62 65 70 82 75 62 65 62 55 53 55
87 86 91 86 78 76 74 73 70 64 60 57 58 59 58 62 63 61 63 67 71 71 70 74 77 75 76 79 82 83 80 76 78 80 79 78 77 79 78 77 81 80 79 78 77 83 89 89 90 87 80 76 72 75 80 69 60 63 59 54 51 49
83 86 91 85 79 78 72 68 65 59 55 52 52 55 59 60 57 56 58 60 66 71 70 69 72 73 73 74 74 74 72 68 65 68 72 71 71 73 68 69 79 78 76 80 80 79 82 86 87 86 86 85 80 77 73 65 63 60 56 54 51 48
80 81 82 79 82 82 73 68 64 58 55 53 54 59 62 61 58 56 57 56 58 64 69 67 68 71 71 72 72 70 70 68 63 60 63 66 69 71 69 73 84 82 77 80 80 78 80 81 79 83 88 84 77 72 68 65 62 53 50 51 47 46
78 78 80 79 83 84 76 71 64 58 59 58 58 60 59 60 61 60 60 58 55 57 65 69 67 68 69 68 68 68 69 71 68 60 59 63 68 72 75 79 85 85 81 81 81 82 82 78 75 80 84 78 71 66 62 64 62 50 44 44 42 44
75 74 78 76 77 80 76 70 64 61 64 62 60 59 56 59 61 60 60 60 58 56 60 66 68 68 67 65 65 67 69 71 70 65 64 68 70 73 78 82 85 86 84 84 86 86 84 79 76 77 75 70 66 59 54 54 54 46 38 37 39 41
72 68 68 70 68 69 69 68 66 65 66 65 63 60 57 57 56 55 57 58 58 57 59 64 66 66 65 64 67 70 71 69 67 67 68 70 71 72 77 84 90 89 86 87 89 90 88 83 78 73 67 62 56 51 47 45 43 38 33 34 39 39
69 65 57 61 60 61 66 70 69 66 66 67 65 60 56 54 50 49 52 53 55 56 59 62 61 61 64 65 66 69 69 66 64 66 68 68 69 71 75 83 89 88 87 89 91 92 90 83 75 68 61 55 48 44 42 39 37 33 30 33 38 37
64 62 53 54 54 57 65 70 72 71 69 67 64 58 54 51 49 47 47 49 52 53 55 58 57 58 63 65 65 65 66 64 65 68 68 68 68 69 70 75 82 86 86 86 86 85 80 74 67 59 52 44 37 35 33 31 32 31 29 32 35 33
60 57 50 50 50 54 63 68 69 73 73 69 65 59 53 51 49 47 47 48 51 51 53 56 55 58 62 64 65 67 67 67 69 70 70 68 67 67 65 64 70 76 75 74 72 69 68 65 60 53 46 38 33 32 32 30 30 28 28 31 33 32
64 60 55 56 59 62 66 65 60 63 64 62 64 62 57 56 55 52 50 49 51 53 54 54 55 61 64 65 66 66 65 66 68 69 69 67 64 63 61 57 60 66 63 61 59 57 57 57 55 50 44 38 34 35 35 33 31 27 26 29 32 34
60 62 64 65 67 65 59 55 54 56 53 53 60 63 61 59 56 55 54 54 54 54 54 54 57 60 62 64 64 60 58 61 63 65 65 63 58 57 56 52 53 57 55 53 52 51 49 50 51 50 47 41 36 39 41 38 35 34 32 30 33 36
59 67 73 68 64 60 53 52 55 55 53 51 52 54 58 58 49 44 45 51 57 56 52 55 57 56 54 56 58 54 51 52 55 58 58 55 51 50 50 48 48 50 50 49 48 47 45 45 46 47 48 45 39 41 44 41 40 40 37 34 33 36
Wind_Speed
25 22 23 26 25 24 21 18 18 17 15 17 16 14 14 14 14 13 12 13 12 10 10 9 9 9 9 9 9 8 8 8 8 8 9 9 9 8 7 6 6 7 6 6 8 9 9 6 4 4 6 6 5 4 2 3 4 4 5 5 6 4
26 23 23 25 24 22 19 18 17 16 15 15 14 14 14 13 13 12 12 11 10 8 8 8 8 9 9 9 8 8 8 8 8 8 8 9 8 8 7 6 5 6 6 7 8 8 8 7 5 5 7 7 5 4 3 3 3 3 4 5 5 4
27 23 22 23 21 19 17 18 17 16 15 13 13 12 12 12 11 11 11 9 8 7 7 7 8 9 9 9 9 9 9 8 8 7 7 8 8 8 7 7 6 6 7 7 7 6 7 7 6 6 7 7 5 4 4 4 3 3 4 5 5 3
23 22 22 20 18 18 18 19 18 17 15 14 14 11 11 12 9 9 9 8 7 7 7 6 8 9 9 8 8 8 8 8 8 7 7 7 8 8 8 7 6 6 6 5 5 5 6 6 6 6 6 6 5 5 5 3 3 3 4 6 4 3
22 21 20 17 17 19 19 19 19 17 15 15 15 13 13 11 9 9 8 7 7 7 8 8 8 7 7 7 7 8 8 8 7 8 8 6 7 8 8 8 7 5 4 4 4 4 5 5 5 5 5 5 5 5 5 4 3 3 5 5 4 4
22 19 17 17 18 18 18 18 19 18 14 14 15 13 12 10 8 9 8 7 7 8 8 8 8 6 6 7 8 8 7 7 7 7 7 6 6 8 7 7 7 5 5 4 5 5 5 6 5 4 5 5 5 5 5 5 4 3 5 5 5 6
20 19 18 18 17 15 14 14 16 16 13 14 15 12 10 8 8 9 9 8 7 8 8 7 7 7 7 7 7 7 6 6 7 6 6 5 5 6 6 6 6 5 5 5 5 5 6 7 6 5 4 4 5 6 5 4 4 4 6 6 5 6
19 19 19 20 19 15 14 13 13 14 12 14 15 12 9 7 9 10 9 8 8 8 8 7 7 8 8 7 6 5 6 7 6 6 6 5 4 5 5 5 6 5 5 5 5 5 6 8 7 5 5 4 5 6 5 4 4 4 5 6 5 6
21 19 19 21 20 18 16 14 15 15 12 14 15 12 9 8 10 9 8 9 8 8 8 8 8 9 9 8 6 5 6 7 7 7 7 6 5 5 5 5 6 5 5 5 5 5 6 7 7 6 5 5 5 5 5 4 3 4 5 6 6 5
22 19 19 21 18 17 18 16 16 15 14 16 14 11 11 10 10 9 8 9 8 8 7 8 8 8 8 7 6 5 6 7 8 9 8 6 5 5 5 5 6 5 5 4 4 5 6 8 8 6 6 5 5 4 4 4 3 3 4 6 6 5
23 20 20 21 17 15 17 17 16 16 15 15 12 11 12 11 10 9 8 9 8 7 6 7 7 7 8 7 7 6 7 8 9 8 7 6 6 5 5 5 5 5 5 4 4 4 6 8 8 6 6 5 4 4 4 3 3 3 4 5 6 5
24 24 23 23 18 14 15 16 16 16 14 12 12 12 13 10 9 9 8 8 8 8 7 7 7 7 8 8 8 8 7 8 8 8 7 7 7 6 5 5 5 5 5 4 4 4 4 7 7 5 5 4 4 4 4 3 3 2 3 4 5 5
23 24 22 20 17 14 13 13 14 14 13 12 13 12 11 9 8 8 8 8 9 8 9 11 10 8 9 8 8 8 7 8 8 8 8 8 8 7 6 6 6 5 5 4 5 4 4 5 5 4 4 4 5 5 4 4 3 3 3 3 4 5
18 20 18 15 14 13 12 12 12 12 13 13 12 10 8 8 9 9 9 9 9 9 9 11 10 8 8 7 7 7 7 7 8 9 10 10 9 7 7 8 8 6 5 4 4 4 4 4 4 4 4 4 5 4 3 3 3 3 3 3 3 5
15 16 15 14 13 12 12 12 11 11 11 11 10 8 7 8 9 9 9 8 8 9 9 9 9 8 8 7 7 7 6 6 8 10 10 10 9 8 8 8 8 8 6 4 4 4 3 4 3 4 4 3 4 4 3 3 2 2 2 3 2 3
14 14 14 14 13 12 11 11 10 10 9 9 9 8 8 8 8 7 7 7 8 9 9 9 9 9 8 7 7 6 6 6 8 9 10 10 9 9 9 8 8 8 6 5 5 4 3 3 3 4 4 3 4 4 3 3 2 2 2 2 2 1
13 14 13 13 12 10 10 10 9 8 8 8 7 7 7 7 6 6 5 6 7 7 8 9 9 9 8 7 6 6 6 6 7 8 9 10 10 8 8 8 8 7 6 5 5 4 4 3 3 3 3 4 4 4 3 3 3 2 2 2 1 1
11 12 11 11 10 8 8 8 7 7 6 6 4 3 3 3 3 4 4 4 5 7 8 8 9 9 8 7 6 5 5 6 7 8 9 10 9 9 9 9 8 8 7 6 5 4 5 4 4 4 4 4 3 3 3 3 2 2 2 1 1 1
9 10 9 8 8 7 8 7 6 6 6 4 3 3 3 2 2 3 4 4 5 6 7 8 8 8 7 7 6 6 5 6 6 7 8 9 11 10 12 11 9 8 8 7 5 5 4 4 5 5 5 4 3 3 3 2 2 2 2 2 2 1
8 8 8 8 9 9 8 7 6 6 5 5 4 4 3 3 3 3 4 5 5 6 7 7 7 7 7 7 6 6 6 6 6 7 7 9 14 13 12 11 9 9 9 8 6 6 6 6 6 6 6 5 4 4 3 3 3 3 2 2 2 2
8 9 9 10 10 10 9 8 7 5 5 5 5 4 4 4 4 5 6 6 6 6 7 7 7 7 7 7 7 7 7 7 6 6 5 7 13 13 11 9 8 8 8 7 7 7 7 7 7 7 6 6 5 4 3 4 4 3 3 2 3 3
9 10 11 12 11 9 8 7 6 6 5 5 5 4 5 5 5 6 8 8 7 7 7 6 7 7 7 7 7 7 7 7 5 5 5 6 11 14 11 7 7 8 7 7 6 6 8 8 8 7 7 7 6 4 4 4 4 4 3 3 3 3
12 12 12 12 11 9 9 9 8 8 6 5 6 6 6 6 6 7 7 8 8 8 7 7 7 7 7 6 6 7 7 7 6 5 6 6 9 13 13 9 7 8 8 7 6 6 8 7 7 7 7 5 4 4 5 5 6 6 5 5 4 3
13 12 12 10 10 11 12 11 11 10 8 7 8 8 8 8 7 8 7 8 9 10 9 8 8 7 7 6 5 6 6 6 6 5 5 6 7 9 11 11 8 7 8 8 7 7 7 7 7 7 6 4 5 5 4 5 8 7 6 6 5 4
9 7 8 10 10 12 13 12 12 11 9 9 9 8 8 8 8 8 8 7 8 9 9 9 9 8 8 7 6 5 5 5 5 5 5 5 5 6 8 9 8 8 8 7 7 7 7 8 8 8 6 3 4 4 3 7 9 7 5 5 5 6
9 7 6 9 11 11 11 12 12 10 8 8 8 7 7 8 7 7 6 6 6 6 7 8 8 8 8 8 7 6 4 4 4 4 4 4 5 5 6 7 8 9 8 7 7 8 8 8 8 8 7 4 1 2 6 10 7 5 5 6 6 6
10 10 8 10 12 10 10 10 9 8 6 6 6 7 7 7 6 6 6 6 6 6 6 7 8 8 8 8 7 6 4 3 3 3 4 4 5 5 5 6 7 8 8 8 8 8 8 8 8 8 7 4 1 2 7 8 5 5 6 5 6 7
12 12 12 13 12 9 9 10 8 7 7 6 7 8 8 7 6 6 6 6 6 7 7 7 8 8 9 8 6 5 4 3 3 3 4 4 5 5 5 6 6 6 6 7 7 7 7 8 8 7 6 5 3 4 5 4 3 6 6 5 7 8
11 12 13 14 12 8 8 10 8 7 7 7 8 9 9 8 7 7 7 7 6 7 7 7 7 8 8 7 6 5 5 5 4 4 4 4 5 5 5 6 7 6 6 6 5 5 7 7 6 7 7 6 6 6 6 4 4 6 6 6 6 7
9 9 10 13 13 9 8 9 7 7 8 8 9 9 9 8 7 7 7 7 6 6 7 7 7 8 7 7 6 5 6 6 6 5 4 5 5 5 5 6 6 5 5 5 4 5 6 6 6 7 8 7 7 7 7 6 6 6 6 6 6 7
6 6 7 10 12 11 10 9 6 7 8 8 9 9 9 9 8 8 8 7 7 6 7 8 8 8 7 7 6 7 8 8 6 5 5 5 5 5 5 5 6 6 5 5 5 5 5 5 6 7 7 7 7 6 6 6 6 6 5 6 7 7
8 9 9 10 11 12 11 9 6 7 8 8 8 9 9 9 8 8 8 8 8 8 9 9 9 8 8 7 7 8 8 7 6 5 5 5 5 6 5 5 6 6 5 5 5 5 6 6 7 7 6 5 4 4 4 4 5 5 5 7 7 7
17 14 13 13 14 15 13 10 7 6 6 7 6 6 8 9 9 8 8 8 9 9 10 9 9 9 8 8 8 8 7 7 7 6 6 6 6 6 6 6 7 8 7 7 6 6 7 7 7 6 5 4 4 4 4 3 4 4 5 7 8 7
22 19 18 20 19 17 15 13 10 7 6 7 6 6 7 8 9 9 8 9 8 9 10 10 9 9 8 8 8 8 8 8 7 7 7 7 7 7 6 6 8 9 9 8 7 7 7 7 6 5 5 5 5 5 5 5 4 5 6 7 8 7
21 21 24 22 17 15 15 15 15 13 10 8 8 7 7 8 9 9 9 9 8 8 10 10 9 9 8 9 9 9 9 8 8 7 8 7 7 6 6 6 7 8 8 7 7 7 6 6 5 5 6 6 7 7 6 6 5 5 6 6 7 7
23 21 21 19 15 15 16 17 17 17 14 11 8 8 8 9 11 11 11 10 8 7 9 9 9 8 8 8 9 9 9 9 9 8 8 7 6 6 6 6 7 7 7 6 6 6 5 6 6 6 7 7 8 8 7 7 6 6 6 6 7 8
28 21 16 18 18 19 20 19 19 18 15 11 10 10 10 11 13 13 13 11 8 7 8 8 7 7 8 8 9 9 9 9 9 8 8 7 6 6 6 7 7 7 6 6 6 6 6 6 6 6 7 7 8 9 8 8 8 8 7 7 7 6
Wind_Direction
160 166 163 160 160 160 163 159 156 159 159 165 171 166 157 151 145 140 142 139 135 139 141 139 138 140 138 137 139 139 138 139 141 135 133 137 137 141 142 129 112 105 106 129 147 151 150 147 151 157 174 182 170 163 150 114 97 93 93 92 95 80
161 163 164 162 162 161 164 162 160 162 161 166 166 160 158 154 151 151 151 146 143 150 149 142 144 146 139 138 140 136 134 138 142 140 138 139 141 142 142 136 122 110 103 113 129 148 156 150 149 156 176 181 173 174 159 122 93 92 90 94 91 66
163 164 167 165 163 160 161 163 165 164 162 167 163 157 160 157 157 158 158 156 154 156 154 153 157 155 144 145 149 140 137 141 142 148 151 148 148 146 145 142 137 126 106 104 123 158 172 164 155 152 172 181 176 171 154 128 101 89 79 90 82 55
164 166 169 167 163 159 160 164 168 169 166 169 163 160 167 165 163 163 167 167 162 161 163 162 160 155 146 149 157 149 146 145 146 155 158 157 159 157 152 145 147 140 116 114 138 164 174 174 170 164 174 179 173 166 153 134 116 95 82 90 68 58
162 164 166 170 170 167 166 167 173 175 172 171 167 169 176 174 171 169 172 176 172 173 181 173 159 156 152 159 168 162 160 155 155 162 159 165 172 166 159 155 155 148 137 139 142 159 173 176 181 178 176 174 168 164 157 139 125 101 90 88 55 75
158 160 163 172 174 172 172 171 176 178 175 176 173 176 182 182 179 175 175 181 179 182 196 182 161 168 171 181 184 171 167 163 166 174 170 174 174 169 169 166 161 153 152 147 142 158 174 178 183 179 173 174 169 165 164 146 130 105 92 88 60 76
154 159 161 168 166 167 175 173 175 176 176 181 180 184 187 188 191 184 180 185 185 186 200 188 166 177 186 198 194 172 170 170 173 180 180 184 173 169 174 169 163 158 158 153 153 164 173 180 183 172 166 170 165 163 165 148 129 108 94 93 71 74
158 160 159 164 164 168 178 176 179 179 178 183 185 190 190 198 204 194 187 190 192 189 192 186 176 182 190 203 196 178 184 180 179 182 180 185 177 167 170 171 168 161 160 156 156 167 174 178 177 167 162 156 151 153 151 138 123 109 94 97 86 75
160 161 163 166 168 173 180 180 185 187 187 191 193 193 194 212 213 202 196 197 196 191 186 183 180 183 188 193 186 181 188 184 183 184 180 179 174 168 165 169 169 160 159 157 157 167 171 172 171 166 159 148 144 143 143 134 116 111 99 102 99 86
162 162 169 170 168 172 179 180 184 188 189 198 204 199 201 217 214 206 202 198 198 193 186 183 182 182 183 180 177 179 186 188 187 185 179 171 162 162 163 163 164 158 153 153 153 163 167 166 166 161 154 147 145 142 141 140 120 112 106 106 108 101
168 167 171 175 171 171 180 181 183 187 187 195 204 203 208 213 209 208 204 196 197 193 190 191 185 180 176 171 175 183 189 188 185 182 172 163 156 155 159 157 158 151 142 140 137 151 163 164 164 161 159 154 148 144 141 145 135 125 120 110 108 110
178 178 177 179 178 172 178 180 182 186 182 184 195 204 206 204 202 207 206 197 194 192 193 198 190 179 176 173 177 184 189 185 177 173 165 158 152 147 150 147 146 142 131 127 125 133 151 162 162 156 157 149 131 121 117 123 116 120 134 125 115 114
181 183 181 179 178 175 174 177 184 185 177 178 192 200 199 199 203 210 215 207 197 192 194 199 194 184 181 179 183 185 185 184 175 168 162 155 150 148 150 145 141 137 130 123 120 126 136 150 154 142 139 132 115 110 116 122 114 110 115 134 154 140
181 184 185 181 179 179 174 175 185 182 176 180 189 197 197 199 202 207 219 217 207 199 198 205 203 194 188 185 188 186 185 186 176 169 161 154 153 156 157 152 150 143 137 132 122 127 128 133 144 136 127 120 114 115 121 126 116 111 100 107 158 159
186 185 184 184 183 183 179 177 181 177 177 180 184 198 199 195 195 197 207 207 200 194 196 208 208 196 188 185 186 186 188 185 174 169 161 157 158 163 162 155 152 147 147 146 132 129 128 127 132 120 108 102 107 111 110 109 94 87 94 92 120 147
189 184 180 185 186 183 181 179 177 176 182 182 181 188 180 177 179 182 194 193 186 184 186 196 198 193 187 185 185 186 186 180 171 166 161 159 162 166 162 150 147 147 148 153 148 140 135 131 126 113 107 98 97 103 100 96 83 62 58 60 82 110
187 187 186 186 184 183 181 177 175 174 178 176 176 176 167 169 167 170 192 192 181 174 176 183 187 187 185 182 180 180 180 176 172 166 164 163 162 167 160 145 144 145 143 158 166 156 154 154 144 134 122 111 100 100 95 79 68 58 40 28 31 6
189 189 186 179 175 173 164 161 161 158 160 158 155 148 149 165 159 168 183 182 178 167 168 176 179 179 177 174 169 170 171 171 169 165 169 163 152 167 175 159 153 155 151 158 164 158 169 173 162 154 140 130 119 107 98 81 63 53 46 33 22 355
197 190 177 167 159 148 142 141 141 143 144 132 117 98 92 105 128 153 157 159 166 160 163 168 170 171 163 159 157 160 162 163 165 163 169 153 134 159 184 172 169 174 163 158 158 159 173 174 163 158 145 136 134 123 107 91 80 70 70 67 54 34
193 183 167 163 156 149 142 138 140 141 133 116 98 84 78 81 97 119 129 135 143 145 151 152 154 154 148 149 149 152 153 154 162 161 168 150 137 159 185 174 168 171 161 156 160 165 173 172 162 149 138 136 134 123 113 105 94 83 82 79 66 66
171 172 170 170 163 156 146 141 144 138 122 111 97 85 82 78 88 104 113 117 121 125 131 133 135 137 138 142 141 143 146 149 158 156 157 145 141 160 184 175 157 152 155 155 156 165 169 170 167 157 149 150 144 117 103 106 96 86 85 78 71 64
165 172 178 176 164 155 147 142 137 127 116 103 86 84 93 94 96 104 110 112 115 118 122 125 130 134 136 138 139 141 144 147 152 151 149 140 142 156 171 175 160 149 154 159 161 168 170 180 190 186 179 169 154 130 112 103 86 82 80 70 69 66
174 178 179 173 161 148 135 131 129 122 114 100 86 86 96 103 106 106 109 114 117 118 120 124 129 132 134 137 140 140 140 144 147 150 153 149 150 157 162 170 171 158 154 162 173 179 183 203 216 205 199 195 164 140 140 126 97 83 81 73 67 71
173 176 172 158 144 141 138 135 135 129 120 112 103 102 104 102 103 103 104 108 113 116 118 120 123 124 123 126 130 132 134 137 142 149 153 154 159 162 163 168 175 171 165 168 175 180 193 213 225 221 214 196 162 148 161 149 119 101 93 87 77 73
156 159 154 147 142 144 145 139 138 135 127 123 121 123 122 114 110 108 104 104 107 112 117 118 120 118 115 114 116 118 123 128 134 143 151 159 164 166 167 169 175 179 182 186 182 181 196 210 221 234 242 224 174 154 157 155 135 111 99 91 80 79
135 135 132 151 156 152 148 143 143 144 140 138 137 136 133 130 129 119 111 111 110 113 118 120 121 119 115 113 113 113 114 125 138 149 161 169 169 176 181 176 176 182 189 195 191 184 188 199 212 224 238 260 254 142 161 167 152 121 110 93 75 75
149 146 143 158 164 159 154 153 151 148 141 140 136 131 130 131 132 127 124 124 120 121 123 126 128 124 118 115 112 111 111 127 155 164 172 177 174 185 191 178 173 180 184 185 190 189 181 186 197 204 217 238 255 164 175 179 159 144 137 105 89 81
165 160 163 170 168 163 161 156 151 145 135 131 134 136 138 135 133 131 128 127 125 122 121 125 129 126 121 117 114 116 118 124 144 154 162 167 164 167 168 161 162 170 175 179 191 194 181 185 192 187 192 201 189 168 175 192 172 159 151 123 114 99
163 164 168 173 167 161 164 160 155 147 136 131 138 143 144 140 137 133 129 126 124 120 116 115 120 120 115 108 106 112 118 118 120 127 136 140 140 144 149 152 154 159 167 173 184 187 183 190 189 173 169 171 171 169 168 183 199 179 159 141 132 118
155 166 171 176 172 165 165 166 164 155 147 143 146 150 148 145 142 139 136 132 129 126 121 116 114 111 102 95 93 100 110 109 103 101 106 118 126 135 145 144 141 149 159 162 165 170 176 180 171 162 165 166 167 170 165 168 181 178 158 143 135 134
154 169 184 187 182 181 176 174 175 168 161 157 157 157 151 149 148 144 142 137 134 132 126 121 115 105 96 94 93 95 103 101 93 92 95 104 114 122 133 132 129 137 146 147 147 148 152 155 155 156 160 165 163 159 161 164 165 165 157 145 141 141
199 193 201 203 193 193 187 178 183 183 177 168 166 164 154 150 147 142 140 137 136 134 129 124 118 109 100 101 101 99 101 101 95 94 95 97 101 106 111 113 119 128 135 138 137 136 137 141 146 146 141 142 140 140 152 157 155 161 161 151 149 147
208 204 208 211 203 199 193 184 185 186 178 170 171 168 154 146 142 137 135 134 134 134 130 123 116 111 105 105 107 104 102 102 101 98 98 97 95 96 98 104 113 120 125 129 129 129 130 131 133 129 121 118 114 118 118 113 134 154 156 153 155 152
200 200 207 212 207 198 192 187 185 180 171 164 164 166 155 144 137 131 127 129 131 129 126 120 113 108 108 108 105 103 100 98 98 97 98 98 93 89 91 103 110 111 113 116 116 118 121 120 118 115 111 110 106 105 103 102 116 140 155 160 161 156
195 201 205 205 197 187 186 190 193 195 192 177 162 158 156 145 135 127 123 122 124 125 120 115 110 105 107 109 106 102 100 98 98 99 100 101 96 89 89 102 108 104 103 106 108 110 114 113 111 109 107 107 107 103 101 107 114 129 148 159 155 153
205 212 206 196 187 189 196 201 203 202 198 187 166 154 156 152 140 130 125 121 119 122 118 111 107 104 104 106 105 102 100 100 101 103 104 102 97 93 93 101 106 103 100 103 108 111 114 113 111 109 106 106 110 106 99 102 105 108 121 136 144 152
209 214 202 192 194 201 205 205 202 197 191 183 169 162 164 159 147 135 129 125 123 121 118 112 103 99 101 103 103 103 101 102 104 106 107 101 99 103 104 105 109 108 105 109 112 111 112 116 114 112 110 108 109 107 101 99 100 102 107 120 137 156